Date,TemperatureHighF,TemperatureAvgF,TemperatureLowF,DewpointHighF,DewpointAvgF,DewpointLowF,HumidityHigh,HumidityAvg,HumidityLow,PressureMaxIn,PressureMinIn,WindSpeedMaxMPH,WindSpeedAvgMPH,GustSpeedMaxMPH,PrecipitationSumIn
2013-1-1,34.4,25.2,11.4,24.7,16.4,5.1,87,70,46,30.36,30.00,14,5,25,0.02
2013-1-2,39.9,22.5,7.7,32.6,16.9,3.4,93,79,65,30.24,30.04,8,2,17,0.01
2013-1-3,47.4,28.6,14.0,32.6,19.7,5.8,92,71,40,30.56,30.05,12,5,26,0.00
2013-1-4,42.5,31.6,23.2,36.8,24.2,15.8,97,75,53,30.55,29.87,18,6,25,0.67
2013-1-5,57.5,35.5,14.3,51.8,31.3,10.9,99,85,67,30.28,29.74,12,4,18,0.01
2013-1-6,58.4,40.2,32.4,51.2,36.3,25.1,97,86,74,30.23,29.66,11,5,21,0.05
2013-1-7,40.3,32.0,23.9,37.9,25.8,16.5,95,78,66,30.36,29.79,19,6,24,0.21
2013-1-8,36.9,24.6,13.6,26.5,18.4,10.2,89,78,60,30.43,30.14,9,2,14,0.00
2013-1-9,47.4,30.8,17.8,33.1,21.8,15.1,94,71,38,30.42,29.93,21,3,24,0.01
2013-1-10,42.8,33.1,21.4,33.6,24.6,13.7,92,72,35,30.56,29.80,12,4,22,0.05
2013-1-11,57.6,36.1,15.4,52.7,28.8,2.6,99,76,44,30.42,29.73,15,4,23,0.67
2013-1-12,58.6,42.6,21.8,51.3,35.0,9.3,96,75,51,30.41,29.80,13,6,30,0.00
2013-1-13,50.8,38.2,18.0,50.0,30.8,2.6,97,76,38,30.06,29.52,19,8,42,0.21
2013-1-14,30.9,21.2,15.6,27.8,10.8,2.2,88,64,46,30.34,29.98,20,6,27,0.21
2013-1-15,17.3,7.6,-1.4,10.5,-2.1,-10.6,78,64,54,30.28,29.94,9,6,24,0.00
2013-1-16,10.4,7.5,3.0,2.3,-2.1,-8.9,78,65,47,30.29,30.24,10,4,20,0.00
2013-1-17,23.6,14.4,9.2,9.9,6.0,-0.5,83,70,44,30.49,30.08,16,5,21,0.00
2013-1-18,34.6,21.7,12.4,22.3,9.4,-3.8,84,60,34,30.58,29.97,23,4,29,0.00
2013-1-19,47.4,31.0,17.7,34.1,22.5,13.4,89,72,52,30.22,29.55,19,6,27,0.00
2013-1-20,44.2,21.4,10.5,33.6,9.7,1.9,88,62,37,30.47,29.52,27,7,34,0.00
2013-1-21,36.5,20.8,4.3,36.0,13.3,-4.3,98,73,53,30.47,29.87,18,4,24,0.00
2013-1-22,43.5,19.7,-1.4,43.2,13.3,-10.7,99,77,45,30.29,29.77,14,4,20,1.00
2013-1-23,61.5,29.0,2.6,56.6,24.1,-3.5,100,81,61,30.29,29.20,13,4,22,0.59
2013-1-24,53.3,25.2,9.0,51.7,16.3,-4.9,98,70,32,30.58,29.07,15,6,33,0.29
2013-1-25,23.5,17.9,12.4,16.0,11.2,4.4,88,75,55,30.50,29.59,12,4,26,0.00
2013-1-26,27.3,18.5,9.3,17.8,10.7,0.1,89,72,52,30.44,30.04,13,4,22,0.00
2013-1-27,29.4,17.9,0.9,27.1,12.1,-3.8,92,78,56,30.48,29.92,12,3,19,0.00
2013-1-28,43.8,28.6,12.6,43.5,24.6,5.0,99,85,58,30.15,29.83,10,3,25,0.74
2013-1-29,58.1,34.8,16.9,55.6,32.5,13.4,100,91,78,29.99,29.43,13,3,19,0.38
2013-1-30,61.6,38.2,10.9,57.0,34.6,6.5,98,87,64,30.25,29.07,19,5,27,0.29
2013-1-31,32.8,20.7,16.5,29.6,13.1,8.4,88,59,50,30.29,29.18,23,6,30,0.09
2013-2-1,39.5,22.0,9.3,27.8,14.7,0.1,94,73,54,30.27,29.74,17,6,23,0.04
2013-2-2,29.0,17.8,7.7,23.1,12.1,3.6,87,78,67,30.43,29.93,14,4,28,0.00
2013-2-3,32.5,18.2,0.9,24.3,11.1,-3.8,92,75,46,30.43,29.84,21,2,23,0.21
2013-2-4,46.2,28.1,17.0,43.5,22.3,6.2,95,79,59,30.13,29.52,12,3,30,0.22
2013-2-5,38.8,27.2,16.9,28.8,20.5,13.3,91,76,62,30.01,29.58,16,6,35,0.00
2013-2-6,33.2,25.6,10.7,25.0,17.1,6.4,90,68,49,30.29,29.80,14,3,15,0.09
2013-2-7,39.9,27.8,25.7,30.9,21.2,18.2,92,65,54,30.27,29.71,16,3,17,0.04
2013-2-8,39.9,30.0,17.8,35.3,23.9,12.7,94,78,56,30.32,29.66,20,7,28,0.01
2013-2-9,33.2,22.8,7.7,18.8,13.4,3.6,87,69,46,30.43,30.02,10,3,23,0.21
2013-2-10,38.9,24.4,9.7,34.8,18.0,3.0,92,77,50,30.29,29.67,11,3,18,0.21
2013-2-11,46.2,29.8,11.9,43.5,20.7,3.2,94,70,41,30.21,29.52,25,7,34,0.22
2013-2-12,45.2,35.0,28.5,40.8,26.0,15.9,91,70,49,30.02,29.39,16,7,29,0.17
2013-2-13,39.6,26.1,16.2,26.1,17.8,6.1,87,71,53,30.08,29.58,14,5,28,0.00
2013-2-14,39.9,28.6,20.3,35.4,21.6,6.9,92,75,54,30.34,29.65,20,6,24,0.01
2013-2-15,35.0,26.4,21.1,27.5,15.8,10.7,90,65,45,30.38,29.81,15,6,23,0.01
2013-2-16,34.0,25.1,15.7,33.0,19.2,7.1,97,79,50,30.08,29.85,14,4,20,0.01
2013-2-17,33.1,21.8,9.7,22.4,11.5,2.9,84,65,40,30.20,29.84,14,4,18,0.08
2013-2-18,45.4,29.3,11.9,33.7,20.3,5.5,92,70,48,30.21,29.59,14,3,19,0.06
2013-2-19,45.2,30.8,18.1,41.0,22.6,8.8,92,73,46,30.19,29.39,26,8,30,0.02
2013-2-20,35.3,25.7,16.1,33.5,18.7,6.1,98,76,54,30.22,29.41,21,7,30,0.50
2013-2-21,35.3,27.3,20.6,34.1,21.6,11.4,98,80,55,30.38,29.49,12,4,16,0.48
2013-2-22,37.9,29.7,22.7,33.0,25.2,17.1,97,83,73,30.26,29.64,14,5,24,0.05
2013-2-23,33.7,28.5,24.4,31.2,20.3,16.5,91,72,56,30.08,29.84,17,3,18,0.08
2013-2-24,37.2,26.8,18.0,25.3,19.3,12.0,84,73,56,30.13,29.87,15,3,19,0.06
2013-2-25,42.5,25.9,14.1,27.0,16.9,8.8,92,70,46,30.21,29.98,10,2,17,0.02
2013-2-26,37.9,30.1,20.8,32.2,22.1,12.3,97,74,35,30.13,29.47,19,5,30,0.45
2013-2-27,36.0,32.5,27.5,34.2,28.4,18.7,98,86,56,30.04,29.41,9,3,21,0.40
2013-2-28,41.3,34.7,30.3,33.2,28.9,24.0,97,80,58,30.24,29.52,17,4,21,0.25
2013-3-1,37.6,28.2,21.3,29.8,20.6,15.8,82,73,57,30.47,29.92,7,1,14,0.25
2013-3-2,46.7,29.4,23.0,31.0,21.0,15.6,92,72,45,30.47,30.02,13,1,13,0.00
2013-3-3,50.2,30.1,17.0,37.7,20.9,11.8,89,69,46,30.32,29.91,13,3,16,0.01
2013-3-4,63.4,38.2,14.0,48.3,25.8,8.7,92,63,35,30.14,29.63,10,3,24,0.03
2013-3-5,52.5,34.8,20.6,48.4,27.9,14.9,94,76,56,30.11,29.42,18,5,28,0.31
2013-3-6,36.8,30.9,25.6,30.5,25.0,15.9,88,79,62,29.95,29.80,10,5,21,0.03
2013-3-7,32.8,27.4,21.9,21.5,16.1,11.6,76,62,49,30.24,29.96,11,7,26,0.01
2013-3-8,42.5,35.2,30.4,29.3,21.4,16.7,81,59,38,30.23,29.88,7,5,18,0.01
2013-3-9,40.5,33.8,27.6,34.0,30.1,25.5,94,87,69,29.87,29.73,7,4,16,0.07
2013-3-10,63.9,37.5,27.6,46.5,27.9,19.3,89,70,43,30.05,29.75,8,4,14,0.07
2013-3-11,56.9,50.1,38.0,49.0,43.3,31.4,95,78,57,29.77,29.42,21,7,23,0.31
2013-3-12,38.0,34.8,29.8,32.0,28.7,24.3,89,78,68,29.89,29.64,15,6,20,0.03
2013-3-13,33.1,29.3,25.6,27.3,20.1,11.7,88,69,49,30.16,29.82,21,8,24,0.01
2013-3-14,42.8,31.5,21.9,21.7,16.8,11.6,76,56,37,30.24,30.06,14,4,16,0.01
2013-3-15,40.6,35.6,30.4,34.1,28.8,19.0,93,77,55,30.06,29.82,12,4,13,0.06
2013-3-16,34.9,29.8,27.6,33.3,25.5,19.0,94,84,68,30.02,29.73,14,5,16,0.07
2013-3-17,34.1,27.4,21.6,23.1,16.0,10.3,78,62,47,30.25,30.01,15,5,18,0.06
2013-3-18,35.3,30.7,22.4,34.5,26.6,13.9,97,85,69,30.18,29.53,18,6,26,0.10
2013-3-19,35.0,27.6,23.6,30.9,18.2,12.9,85,68,58,29.91,29.58,24,10,24,0.10
2013-3-20,29.8,25.4,18.1,18.2,13.7,7.1,73,61,50,29.93,29.86,18,7,19,0.00
2013-3-21,32.9,24.6,15.9,23.5,17.0,9.2,82,73,58,29.91,29.84,16,6,21,0.00
2013-3-22,41.8,22.2,26.6,22.4,13.2,15.8,78,39,42,29.99,29.91,16,6,16,0.00
2013-3-23,41.1,31.1,21.3,24.3,21.4,16.8,88,68,48,30.08,29.98,11,2,13,0.00
2013-3-24,37.2,31.0,24.4,26.6,22.4,17.3,86,71,48,30.03,29.60,22,6,28,0.00
2013-3-25,39.8,34.9,30.3,27.9,25.1,22.4,84,68,55,29.87,29.53,22,9,25,0.00
2013-3-26,44.9,37.6,33.7,30.2,27.6,24.5,80,67,50,30.07,29.87,12,5,16,0.00
2013-3-27,48.3,38.6,29.7,30.0,25.7,22.0,82,62,37,30.16,30.07,20,7,21,0.00
2013-3-28,52.9,41.5,31.0,27.2,24.2,20.9,75,52,30,30.22,30.16,13,5,17,0.00
2013-3-29,55.0,42.1,31.3,25.6,20.9,17.1,67,45,24,30.25,30.15,9,3,11,0.00
2013-3-30,56.5,42.0,24.5,28.3,22.5,16.0,85,50,21,30.18,29.90,14,3,19,0.00
2013-3-31,60.7,45.8,33.2,45.0,33.3,26.7,89,65,30,29.89,29.57,17,4,20,0.01
2013-4-1,43.8,33.7,27.2,32.2,16.4,8.9,74,50,28,30.07,29.64,17,8,25,0.01
2013-4-2,41.6,20.3,22.9,16.9,7.2,9.1,66,24,27,30.21,30.07,14,5,19,0.00
2013-4-3,43.5,16.7,29.7,13.2,4.4,7.4,48,13,23,30.39,30.21,15,3,21,0.00
2013-4-4,56.3,22.5,34.1,18.2,6.8,11.0,50,12,18,30.33,29.90,14,3,18,0.00
2013-4-5,49.8,19.5,40.5,20.4,6.7,13.1,43,12,24,30.16,29.88,17,4,20,0.00
2013-4-6,50.7,16.1,39.8,23.7,7.3,17.0,52,13,31,30.21,29.74,16,5,20,0.00
2013-4-7,55.7,30.4,41.9,43.4,21.5,32.0,69,34,44,29.98,29.57,21,8,24,0.00
2013-4-8,66.6,46.1,31.8,56.0,39.9,27.9,94,79,57,30.00,29.65,20,4,23,0.16
2013-4-9,55.4,47.5,42.8,46.1,42.8,39.9,90,84,66,30.05,29.84,13,4,14,0.01
2013-4-10,48.9,43.0,39.3,46.1,41.5,38.3,98,95,89,29.94,29.82,14,6,20,0.54
2013-4-11,39.5,37.9,36.6,38.7,36.7,34.8,98,95,90,29.93,29.60,19,8,24,0.32
2013-4-12,44.1,39.2,36.0,40.4,35.8,31.3,98,88,68,29.73,29.48,15,5,21,0.69
2013-4-13,42.9,39.4,37.0,37.3,30.6,25.7,86,71,55,29.96,29.74,20,6,22,0.01
2013-4-14,48.8,39.8,31.5,37.6,31.3,25.2,82,72,61,30.09,29.91,11,3,15,0.03
2013-4-15,68.6,54.9,35.8,54.6,44.4,32.3,92,69,52,29.94,29.83,18,4,23,0.02
2013-4-16,63.2,55.3,47.1,52.8,43.8,33.6,95,68,40,30.17,29.82,15,4,21,0.37
2013-4-17,57.2,48.0,40.9,45.3,35.7,29.8,94,64,40,30.29,30.02,15,6,17,0.75
2013-4-18,78.8,58.7,43.5,63.9,54.7,41.9,96,88,57,30.01,29.52,30,6,30,0.70
2013-4-19,59.0,46.0,37.9,58.2,39.6,27.5,98,79,60,29.71,29.27,27,9,34,1.04
2013-4-20,42.3,35.6,29.7,31.5,21.7,15.2,88,58,42,30.41,29.71,18,7,22,0.02
2013-4-21,48.6,36.8,22.9,30.2,23.1,18.2,91,60,35,30.61,30.42,12,3,16,0.02
2013-4-22,61.8,46.6,29.5,36.9,28.0,15.7,91,54,17,30.46,30.16,11,2,14,0.00
2013-4-23,70.8,54.5,36.8,54.6,41.1,31.2,96,65,35,30.16,29.75,28,4,28,0.27
2013-4-24,55.7,41.5,35.8,54.6,38.3,27.4,97,89,69,30.10,29.66,16,5,20,0.17
2013-4-25,52.9,40.9,31.8,40.2,30.7,25.5,87,69,39,30.31,30.08,19,5,24,0.06
2013-4-26,58.6,44.3,27.6,37.9,31.6,24.8,94,64,37,30.44,30.31,13,2,13,0.06
2013-4-27,68.3,52.8,33.5,42.4,34.8,29.3,94,56,24,30.34,30.06,12,2,13,0.00
2013-4-28,54.8,52.3,46.1,53.9,45.9,31.0,98,81,48,30.06,29.79,10,2,13,0.30
2013-4-29,69.6,59.3,51.7,55.9,53.2,51.3,99,82,55,29.89,29.79,10,1,10,0.32
2013-4-30,72.0,60.8,49.5,56.4,53.1,47.7,96,77,55,30.03,29.88,15,3,22,0.02
2013-5-1,80.3,65.1,46.8,59.3,52.3,45.4,97,67,38,30.18,30.02,12,3,18,0.02
2013-5-2,77.9,65.6,51.9,57.7,49.0,40.2,86,58,34,30.19,30.08,17,4,19,0.00
2013-5-3,76.1,66.3,55.4,55.9,43.6,30.9,64,46,20,30.09,30.00,15,4,21,0.00
2013-5-4,71.1,62.5,52.5,47.3,40.9,32.1,78,48,27,30.07,30.00,18,4,18,0.00
2013-5-5,72.7,62.2,50.4,45.0,38.6,31.4,74,44,23,30.06,29.97,14,4,17,0.00
2013-5-6,74.6,61.6,46.0,50.9,42.5,37.1,78,51,34,30.01,29.92,15,3,17,0.00
2013-5-7,75.4,63.6,50.4,55.7,47.5,39.1,78,57,38,30.01,29.93,13,3,19,0.00
2013-5-8,80.7,65.1,52.6,55.7,49.6,44.4,87,60,33,29.97,29.87,13,2,13,0.00
2013-5-9,80.9,66.2,48.5,55.9,49.4,40.3,97,61,27,29.91,29.84,10,1,11,0.00
2013-5-10,72.1,60.1,43.6,61.4,53.2,38.2,96,79,57,29.86,29.69,12,4,17,0.23
2013-5-11,61.6,47.9,38.8,47.2,40.7,32.2,90,77,50,29.86,29.69,22,5,28,0.02
2013-5-12,50.2,41.6,32.4,33.6,28.9,24.0,84,62,41,30.06,29.84,19,6,29,0.02
2013-5-13,55.9,41.9,26.4,30.1,24.2,19.4,91,55,25,30.15,30.06,12,2,15,0.00
2013-5-14,77.0,57.8,39.6,51.5,39.9,29.8,72,53,34,30.08,29.68,11,2,14,0.00
2013-5-15,83.6,70.3,52.5,59.9,47.8,37.9,94,50,26,29.72,29.53,18,4,22,0.00
2013-5-16,84.0,68.1,48.0,48.2,43.7,36.8,86,46,22,29.95,29.72,13,3,17,0.00
2013-5-17,73.7,61.8,48.9,46.7,41.6,37.0,74,50,29,30.10,29.97,11,4,15,0.00
2013-5-18,80.9,66.8,56.0,50.7,44.4,39.1,67,47,24,30.09,29.98,13,3,15,0.00
2013-5-19,86.3,69.9,53.2,63.9,55.7,44.4,81,62,41,29.99,29.83,8,1,13,0.00
2013-5-20,90.3,75.6,59.6,70.6,63.0,57.9,96,69,35,29.87,29.70,15,2,20,0.00
2013-5-21,86.3,77.3,67.4,67.1,62.0,56.4,90,62,37,29.76,29.64,19,2,19,0.02
2013-5-22,82.0,70.0,61.8,67.0,62.4,56.8,95,78,43,29.68,29.56,25,3,34,0.08
2013-5-23,65.2,54.7,43.3,60.4,51.4,37.7,96,88,75,30.10,29.63,18,4,19,0.18
2013-5-24,56.0,47.0,40.3,39.6,34.5,30.6,92,63,42,30.32,30.10,13,4,20,0.18
2013-5-25,66.9,51.5,33.7,39.9,35.1,31.3,94,59,28,30.37,30.24,11,2,15,0.00
2013-5-26,70.8,55.1,34.6,41.1,34.2,28.2,93,52,22,30.31,30.18,12,1,12,0.00
2013-5-27,61.6,50.9,41.2,51.1,42.3,31.9,98,75,35,30.23,29.98,10,2,13,0.62
2013-5-28,78.3,63.3,51.4,70.4,60.4,50.9,99,91,70,29.98,29.75,9,2,14,0.04
2013-5-29,85.9,75.9,67.6,65.6,63.6,58.7,88,67,42,29.93,29.72,16,4,18,0.04
2013-5-30,88.8,73.1,60.5,70.2,65.1,59.1,97,78,46,30.00,29.90,13,2,16,0.53
2013-5-31,81.4,72.1,63.5,69.7,66.4,62.6,98,84,59,29.93,29.81,11,2,19,0.07
2013-6-1,79.6,71.1,64.0,68.6,63.5,60.5,97,78,58,29.81,29.63,13,3,16,0.26
2013-6-2,72.0,66.0,54.5,65.1,56.7,43.4,91,73,58,29.92,29.60,15,5,19,0.00
2013-6-3,68.4,57.0,43.8,45.6,40.1,33.3,85,56,32,30.04,29.93,8,2,12,0.00
2013-6-4,73.2,60.0,46.1,48.2,42.7,27.8,91,56,31,30.15,30.04,10,1,11,0.00
2013-6-5,74.4,62.5,51.0,49.6,41.0,29.8,61,46,28,30.13,29.93,10,2,13,0.00
2013-6-6,69.4,61.5,56.3,54.6,47.7,41.4,69,61,54,29.95,29.80,14,4,14,0.00
2013-6-7,62.0,57.3,50.8,52.5,50.4,48.0,93,78,69,29.86,29.81,9,2,10,0.00
2013-6-8,73.3,63.8,56.9,54.4,51.8,49.7,80,66,46,30.02,29.86,7,1,8,0.00
2013-6-9,76.7,67.3,56.2,59.2,54.8,51.1,91,66,45,30.07,29.90,15,3,18,0.00
2013-6-10,70.9,65.6,60.4,68.4,63.7,53.6,99,94,62,29.90,29.67,10,1,10,0.11
2013-6-11,82.8,72.4,64.7,66.5,63.8,61.4,97,77,50,29.83,29.70,11,2,14,0.11
2013-6-12,76.8,70.0,61.3,68.1,64.2,59.0,96,82,70,29.87,29.60,13,1,13,0.09
2013-6-13,78.3,69.3,60.9,65.7,58.1,50.6,98,71,40,29.86,29.46,17,4,20,1.04
2013-6-14,78.3,68.3,59.2,58.2,53.3,46.8,84,61,35,30.01,29.86,14,3,17,0.00
2013-6-15,79.6,67.0,53.5,63.1,57.4,52.1,97,74,46,30.04,29.88,10,1,15,0.00
2013-6-16,83.2,71.8,62.0,66.0,61.0,49.5,97,72,34,29.88,29.72,11,3,15,0.32
2013-6-17,87.8,72.5,56.0,64.4,56.9,52.0,93,62,30,29.86,29.76,9,1,15,0.00
2013-6-18,73.7,65.0,56.2,60.9,51.8,40.0,96,66,37,30.02,29.81,12,4,21,0.23
2013-6-19,75.4,63.2,50.7,54.3,47.4,39.5,80,58,35,30.12,30.02,9,2,13,0.00
2013-6-20,82.2,66.7,50.1,57.3,52.5,48.2,96,65,32,30.17,30.09,7,0,9,0.00
2013-6-21,85.9,72.4,56.0,65.2,59.3,53.6,93,66,38,30.16,30.00,8,0,9,0.00
2013-6-22,85.7,74.3,64.5,72.6,66.1,58.9,90,76,62,30.04,29.92,10,1,13,0.16
2013-6-23,89.9,79.3,68.6,70.0,66.7,62.8,95,68,42,30.01,29.55,11,1,17,0.00
2013-6-24,87.8,78.4,67.6,71.9,67.1,63.3,90,69,50,30.00,29.85,0,0,0,0.00
2013-6-25,85.9,75.4,68.3,72.6,67.9,62.9,96,78,59,29.93,29.75,0,0,1,0.33
2013-6-26,83.6,74.3,66.4,70.3,67.8,65.2,98,81,61,29.83,29.68,0,0,0,0.01
2013-6-27,83.0,72.6,65.8,72.0,68.6,65.2,98,89,59,29.70,29.57,0,0,0,1.34
2013-6-28,79.2,67.9,63.9,67.6,64.3,58.9,99,89,56,29.57,29.45,0,0,0,0.32
2013-6-29,75.6,68.1,63.9,65.4,61.5,54.3,96,81,60,29.68,29.48,0,0,0,0.01
2013-6-30,79.0,69.9,61.3,61.8,56.7,44.9,86,64,45,29.88,29.68,0,0,0,0.01
2013-7-1,67.6,63.3,59.9,60.9,55.2,45.5,96,76,49,30.01,29.88,0,0,0,0.67
2013-7-2,74.6,66.8,59.9,62.9,59.2,55.2,91,77,63,30.02,29.96,0,0,0,0.68
2013-7-3,83.4,71.4,60.2,69.0,63.7,57.3,93,78,50,30.05,29.99,0,0,0,0.00
2013-7-4,80.3,74.6,68.8,68.9,66.1,61.7,95,76,54,30.08,30.01,0,0,0,0.00
2013-7-5,84.3,74.8,70.1,70.1,66.9,61.0,95,78,46,30.05,29.99,0,0,0,0.00
2013-7-6,83.8,74.0,67.3,71.2,68.6,65.7,98,84,59,30.05,29.93,0,0,0,0.18
2013-7-7,82.2,74.0,69.9,72.1,68.9,65.4,98,85,57,29.98,29.90,0,0,0,0.17
2013-7-8,82.0,72.9,67.4,74.1,69.8,65.6,97,90,74,29.98,29.91,0,0,0,0.53
2013-7-9,89.9,76.7,71.5,73.5,71.5,69.2,98,86,51,29.93,29.81,9,0,22,0.18
2013-7-10,88.6,76.9,67.9,76.9,70.0,56.5,99,81,51,29.87,29.69,14,2,22,0.17
2013-7-11,79.4,70.4,60.7,58.6,55.2,51.9,85,60,39,30.00,29.87,12,2,14,0.17
2013-7-12,82.2,70.0,56.5,63.1,58.1,54.1,95,68,42,30.10,30.00,9,2,13,0.00
2013-7-13,83.8,74.0,62.1,65.4,61.2,56.3,89,66,41,30.16,30.08,9,2,12,0.00
2013-7-14,89.9,77.9,65.5,72.1,67.1,61.5,94,71,48,30.19,30.15,9,1,9,0.00
2013-7-15,92.5,79.8,70.3,76.5,72.3,68.2,96,80,54,30.23,30.15,10,1,14,0.10
2013-7-16,90.7,82.4,75.4,77.9,75.1,72.3,97,80,57,30.24,30.17,9,1,9,0.10
2013-7-17,94.5,83.6,73.2,76.4,73.5,70.6,94,73,50,30.22,30.07,9,2,11,0.00
2013-7-18,94.5,83.3,72.5,78.1,73.2,68.2,95,73,44,30.09,29.89,14,1,14,0.00
2013-7-19,94.0,83.9,73.9,75.0,72.3,68.2,94,70,46,29.90,29.65,18,3,41,0.44
2013-7-20,87.0,77.3,69.1,74.1,65.3,56.5,97,70,38,29.85,29.65,13,2,15,0.85
2013-7-21,84.1,74.2,64.8,64.9,60.0,52.7,81,62,44,29.94,29.85,9,2,11,0.00
2013-7-22,81.6,74.2,69.1,67.8,65.1,62.2,90,74,55,29.90,29.70,6,1,11,0.00
2013-7-23,85.5,71.5,61.5,71.7,64.8,50.9,96,81,54,29.82,29.60,22,3,22,0.48
2013-7-24,73.5,65.0,58.3,53.8,49.8,46.9,73,59,42,30.00,29.82,12,3,14,0.48
2013-7-25,77.6,64.7,49.9,57.8,52.7,48.2,96,68,41,30.06,30.00,7,1,8,0.00
2013-7-26,79.0,67.9,54.8,60.3,56.9,53.1,96,70,46,30.06,29.85,5,0,9,0.00
2013-7-27,73.9,66.2,56.5,67.3,62.4,51.7,96,88,69,29.86,29.67,21,1,27,0.51
2013-7-28,66.4,58.6,51.3,56.3,51.3,48.9,95,78,59,29.94,29.78,14,2,17,0.02
2013-7-29,70.1,62.2,56.3,57.0,53.7,51.2,89,74,54,30.14,29.94,10,2,12,0.02
2013-7-30,79.6,65.9,51.4,61.2,56.0,50.0,97,74,42,30.19,30.08,5,0,8,0.00
2013-7-31,76.5,68.7,62.9,68.2,64.2,59.8,97,86,65,30.08,29.82,5,0,8,0.26
2013-8-1,79.9,68.8,62.4,66.0,60.9,54.0,97,78,43,29.86,29.81,9,2,11,0.26
2013-8-2,73.9,65.2,53.9,64.3,58.2,51.6,95,79,58,29.88,29.80,17,2,17,0.00
2013-8-3,79.2,69.9,58.0,64.0,56.9,48.4,97,67,35,29.99,29.84,11,2,15,0.00
2013-8-4,74.4,65.0,54.7,55.1,52.7,48.8,93,66,41,30.10,29.99,12,2,15,0.00
2013-8-5,72.1,65.2,56.9,58.4,53.7,48.6,87,67,50,30.07,29.92,5,0,10,0.00
2013-8-6,78.5,69.9,64.0,68.4,62.6,58.0,93,78,60,29.92,29.84,13,1,13,0.01
2013-8-7,84.3,72.1,64.2,71.7,67.0,62.7,97,85,59,29.86,29.76,11,1,12,0.06
2013-8-8,77.9,71.2,65.6,71.7,63.5,58.5,95,78,58,29.95,29.82,9,2,13,0.07
2013-8-9,82.4,71.0,60.4,61.1,56.3,52.4,85,62,38,29.95,29.88,8,1,12,0.00
2013-8-10,78.6,70.2,62.4,61.5,58.5,53.6,90,68,45,30.07,29.95,8,1,9,0.00
2013-8-11,80.5,69.1,56.0,62.2,57.3,54.0,96,69,43,30.07,29.97,7,1,10,0.00
2013-8-12,72.0,67.1,64.3,68.7,63.6,59.3,98,89,71,30.00,29.78,6,0,9,0.92
2013-8-13,67.6,62.4,55.0,65.1,52.7,45.0,98,73,46,30.00,29.76,12,4,16,0.95
2013-8-14,72.7,59.8,49.6,52.2,48.3,45.1,87,68,41,30.11,30.00,9,2,12,0.00
2013-8-15,74.7,61.9,48.5,55.6,50.5,46.1,96,70,39,30.13,30.04,6,1,8,0.00
2013-8-16,79.4,65.8,51.4,58.2,53.8,50.0,97,69,37,30.15,30.06,6,0,8,0.00
2013-8-17,80.9,67.2,52.2,60.1,54.7,48.1,97,69,32,30.21,30.13,12,1,12,0.00
2013-8-18,82.0,69.0,56.7,64.2,57.9,53.5,98,71,38,30.16,30.06,8,1,10,0.00
2013-8-19,84.0,70.1,56.2,63.4,57.8,53.7,98,69,38,30.07,29.98,9,1,13,0.00
2013-8-20,87.4,72.9,58.9,66.2,62.2,57.2,97,72,43,30.09,30.01,8,1,11,0.00
2013-8-21,86.1,74.9,62.9,68.3,65.2,61.6,97,74,52,30.08,29.93,9,1,12,0.00
2013-8-22,83.2,75.7,70.3,68.9,67.2,65.2,92,76,57,29.98,29.88,8,2,10,0.00
2013-8-23,83.6,72.8,58.4,67.7,52.9,44.2,89,54,26,30.14,29.96,12,2,13,0.00
2013-8-24,83.2,69.6,56.0,64.5,56.7,51.8,96,66,38,30.25,30.14,6,1,12,0.00
2013-8-25,87.6,72.2,54.8,64.7,59.5,53.4,98,68,39,30.25,30.09,11,1,13,0.00
2013-8-26,89.3,77.4,64.3,71.8,66.3,61.1,91,70,50,30.11,29.91,13,2,15,0.00
2013-8-27,83.0,76.8,71.8,76.7,72.3,69.4,97,86,72,29.93,29.77,13,1,22,0.18
2013-8-28,83.8,77.6,71.3,75.1,71.7,67.5,97,83,61,29.93,29.71,10,2,14,1.32
2013-8-29,87.8,74.2,64.8,74.8,68.8,63.9,98,85,53,30.01,29.93,8,0,15,0.96
2013-8-30,87.8,75.9,63.5,72.9,67.8,62.9,99,79,50,29.94,29.68,14,1,17,1.06
2013-8-31,81.2,74.3,70.8,71.9,68.7,64.0,99,84,60,29.77,29.66,9,1,11,1.07
2013-9-1,83.4,73.7,68.4,71.7,67.6,64.7,91,82,66,29.79,29.65,6,1,7,0.00
2013-9-2,78.5,70.3,61.8,69.9,61.3,51.2,94,74,51,29.85,29.65,15,4,17,0.00
2013-9-3,75.8,64.5,58.4,56.1,53.0,50.3,85,68,45,29.96,29.85,11,3,14,0.00
2013-9-4,82.4,67.9,52.0,62.9,57.4,50.9,97,72,46,30.03,29.95,10,3,14,0.00
2013-9-5,72.8,64.3,55.1,61.7,50.8,42.8,92,64,35,30.21,30.01,10,2,14,0.00
2013-9-6,75.3,60.7,45.5,53.3,46.3,35.6,97,65,27,30.23,30.03,8,0,9,0.00
2013-9-7,82.8,68.0,54.4,68.5,59.9,50.3,95,76,55,30.03,29.83,10,1,13,0.02
2013-9-8,75.4,69.5,58.3,66.9,57.9,48.6,88,68,44,30.02,29.86,13,3,18,0.02
2013-9-9,75.3,64.1,52.8,69.1,60.0,49.1,96,87,74,30.02,29.85,6,0,7,0.14
2013-9-10,94.5,80.9,67.3,73.4,69.4,63.8,97,72,38,29.94,29.83,12,2,16,0.14
2013-9-11,92.3,77.9,69.9,73.6,68.5,64.6,96,75,47,29.96,29.82,13,1,16,0.13
2013-9-12,78.8,69.3,57.3,68.7,60.4,49.0,97,77,40,29.90,29.77,16,3,24,0.01
2013-9-13,61.5,55.1,44.2,49.3,43.0,36.7,82,64,46,30.09,29.90,14,4,20,0.01
2013-9-14,70.4,53.0,37.6,46.0,39.8,32.4,97,67,27,30.16,30.05,7,0,9,0.00
2013-9-15,64.3,54.3,44.6,55.1,49.2,43.5,97,84,60,30.08,30.01,8,1,9,0.04
2013-9-16,64.3,56.4,48.5,54.6,48.3,41.0,97,76,48,30.33,30.08,13,3,14,0.04
2013-9-17,69.6,52.9,38.0,50.8,42.9,35.9,97,72,38,30.37,30.18,12,1,12,0.00
2013-9-18,75.3,59.6,45.1,57.1,50.8,42.7,97,76,45,30.18,30.00,11,0,11,0.00
2013-9-19,80.5,66.6,54.8,67.9,61.9,53.7,98,86,63,30.00,29.87,8,0,12,0.00
2013-9-20,82.0,71.9,67.1,71.9,68.2,65.6,98,89,63,29.88,29.67,11,2,12,0.60
2013-9-21,69.1,62.9,56.2,66.7,55.2,43.8,98,78,46,29.81,29.61,14,4,18,0.71
2013-9-22,60.5,54.5,50.5,43.8,41.3,38.6,77,61,49,30.04,29.81,14,3,16,0.00
2013-9-23,63.5,52.5,43.1,45.3,42.2,39.1,92,70,46,30.15,30.04,8,1,10,0.00
2013-9-24,69.8,54.2,41.6,52.3,46.2,40.2,98,77,46,30.11,29.95,10,1,12,0.00
2013-9-25,72.1,57.2,46.2,56.2,49.3,45.1,98,78,44,29.98,29.90,9,1,11,0.00
2013-9-26,76.8,59.3,44.3,55.1,47.5,43.0,99,70,32,30.09,29.95,8,1,11,0.00
2013-9-27,76.0,59.4,45.4,59.7,51.2,44.3,99,77,42,30.19,30.09,8,1,11,0.00
2013-9-28,77.2,61.9,48.6,63.6,53.5,47.8,99,77,42,30.15,29.97,11,1,13,0.01
2013-9-29,62.6,58.3,54.2,61.4,55.8,52.5,96,91,82,29.98,29.92,2,0,6,0.08
2013-10-30,59.8,55.5,53.2,52.2,45.8,41.6,94,71,51,30.04,29.92,5,1,7,0.09
2013-10-31,62.3,59.8,54.1,61.8,58.7,52.4,99,96,91,29.92,29.11,19,4,22,0.70
2013-11-1,61.0,50.1,45.7,59.9,43.8,39.0,96,79,70,29.62,29.07,25,7,28,0.75
2013-11-2,48.3,44.5,37.3,44.7,40.8,31.6,97,87,70,30.06,29.61,10,3,16,0.01
2013-11-3,46.8,37.5,30.7,35.5,31.1,28.1,93,79,55,30.42,30.05,8,1,13,0.01
2013-11-4,49.6,40.1,30.6,35.1,31.0,26.1,94,72,40,30.45,30.28,14,3,17,0.01
2013-11-5,54.2,46.8,35.8,47.9,41.7,32.2,93,83,70,30.33,30.14,7,1,11,0.00
2013-11-6,56.3,52.9,43.9,52.4,46.3,37.5,91,79,60,30.14,29.76,23,6,24,0.06
2013-11-7,45.7,40.5,34.7,38.0,30.5,22.9,92,69,43,30.10,29.93,18,6,23,0.04
2013-11-8,46.8,36.0,29.3,32.0,27.5,23.0,92,74,39,30.25,30.08,11,2,12,0.04
2013-11-9,57.6,47.8,33.5,40.5,35.0,29.4,87,62,49,30.15,29.76,21,7,27,0.01
2013-11-10,49.5,42.1,30.3,41.1,30.2,25.2,87,64,48,30.23,29.85,20,6,23,0.02
2013-11-11,43.3,36.7,28.7,39.1,30.8,19.8,92,80,68,30.27,29.99,15,6,21,0.14
2013-11-12,35.5,28.9,23.5,20.9,17.2,14.5,76,62,43,30.52,30.27,18,6,22,0.01
2013-11-13,40.9,29.6,18.6,23.5,17.6,11.3,85,63,30,30.52,30.14,20,6,22,0.01
2013-11-14,50.4,38.5,28.2,25.2,21.5,17.5,69,51,34,30.15,29.96,18,7,22,0.00
2013-11-15,50.4,42.7,35.9,30.4,27.1,23.5,66,54,42,30.03,29.97,13,4,16,0.00
2013-11-16,57.6,46.0,30.4,52.0,40.4,27.3,92,81,65,30.07,29.77,14,3,19,0.00
2013-11-17,64.0,58.0,48.0,59.6,53.8,40.0,95,86,64,29.77,29.19,29,8,46,0.69
2013-11-18,48.0,41.0,35.0,40.1,30.2,22.5,74,65,60,30.08,29.42,25,10,29,0.69
2013-11-19,43.3,35.2,27.2,24.0,21.7,19.3,83,59,38,30.37,30.08,14,3,17,0.00
2013-11-20,46.4,35.1,23.5,32.7,25.0,19.7,93,69,35,30.41,30.21,16,3,19,0.00
2013-11-21,47.4,43.7,39.5,44.0,37.5,28.5,98,80,62,30.26,30.13,8,2,14,0.28
2013-11-22,45.8,40.0,26.1,45.5,36.7,21.6,99,88,68,30.32,30.09,18,4,21,0.34
2013-11-23,30.0,24.5,17.7,23.8,14.8,3.8,90,68,38,30.50,30.23,25,7,28,0.00
2013-11-24,28.1,19.6,13.6,14.2,8.7,6.4,79,63,41,30.58,30.41,16,5,19,0.00
2013-11-25,30.9,25.2,18.4,24.1,15.6,9.9,85,67,52,30.41,30.07,19,7,23,0.00
2013-11-26,35.0,31.9,29.4,27.3,25.8,23.8,83,78,71,30.09,29.89,11,4,15,0.00
2013-11-27,30.0,24.8,19.2,24.0,13.0,7.6,81,61,46,30.17,29.87,19,8,23,0.00
2013-11-28,28.5,22.8,16.9,20.1,14.5,10.0,85,71,56,30.40,30.17,6,1,8,0.00
2013-11-29,35.8,24.0,13.5,22.2,16.2,9.8,89,74,42,30.64,30.40,6,0,6,0.00
2013-11-30,46.0,33.2,18.6,27.9,23.3,6.6,86,68,47,30.54,30.07,11,1,15,0.00
2013-12-1,46.8,35.9,29.0,34.2,29.3,24.2,89,77,60,30.07,29.94,10,1,11,0.00
2013-12-2,39.6,28.8,31.5,32.1,21.5,20.0,90,60,46,29.96,29.85,8,1,10,0.00
2013-12-3,-200.0,0.0,200.0,-99.9,0.0,200.0,0,0,100,29.87,29.77,8,2,9,0.00
2013-12-4,52.5,12.1,41.6,47.8,11.3,40.8,97,22,81,29.83,29.58,14,2,15,0.00
2013-12-5,43.9,13.4,37.3,35.7,9.8,24.7,75,21,60,30.10,29.56,24,7,25,0.00
2013-12-6,28.2,7.1,26.4,16.7,4.1,13.9,62,16,58,30.37,30.07,10,2,11,0.00
2013-12-7,27.5,8.3,18.4,9.2,2.7,6.7,64,17,43,30.59,30.37,13,4,15,0.00
2013-12-8,-200.0,0.0,200.0,-99.9,0.0,200.0,0,0,100,30.57,29.91,15,4,15,0.00
2013-12-9,29.1,8.3,26.4,23.9,6.1,15.9,83,22,64,30.07,29.80,18,7,28,0.00
2013-12-10,22.9,6.2,11.9,9.0,1.6,0.4,72,19,42,30.16,29.93,20,7,25,0.00
2013-12-11,23.8,7.1,17.7,18.5,4.9,7.9,82,26,60,30.43,30.16,15,5,16,0.00
2013-12-12,19.2,5.1,10.0,5.4,0.7,-2.7,77,20,41,30.43,30.16,14,5,20,0.00
2013-12-13,29.4,8.1,20.3,19.2,5.3,13.0,73,22,64,30.25,30.12,13,3,16,0.00
2013-12-14,20.3,5.6,18.3,17.3,4.6,14.5,89,25,85,30.24,29.78,17,6,21,0.00
2013-12-15,25.0,12.7,16.4,21.4,8.4,5.0,88,46,60,30.00,29.78,19,6,23,0.00
2013-12-16,24.7,14.0,2.0,14.1,6.9,-2.2,87,74,49,30.16,29.98,7,1,10,0.12
2013-12-17,26.3,21.2,14.0,21.8,17.4,10.6,88,85,79,29.98,29.87,15,4,18,0.12
2013-12-18,32.1,24.7,21.1,24.1,18.6,13.6,93,78,60,30.09,29.88,14,4,16,0.03
2013-12-19,40.1,32.7,23.5,33.4,25.7,14.4,90,76,65,29.96,29.84,8,2,11,0.13
2013-12-20,40.6,35.9,34.0,40.3,35.1,32.6,99,97,90,29.88,29.69,6,1,10,0.29
2013-12-21,35.0,33.9,32.7,34.7,33.6,32.2,99,99,98,29.82,29.61,14,3,20,0.60
2013-12-22,38.0,34.9,32.7,36.7,33.2,32.0,99,93,83,29.92,29.51,16,5,24,0.83
2013-12-23,34.6,29.5,22.1,31.7,22.3,13.5,89,74,60,30.27,29.92,13,5,18,0.00
2013-12-24,22.1,16.1,9.7,13.8,6.6,3.8,81,66,48,30.53,30.26,16,5,18,0.00
2013-12-25,25.1,19.5,8.8,21.8,14.6,4.4,87,81,70,30.49,30.09,18,4,19,0.00
2013-12-26,29.0,26.2,24.4,25.0,20.4,15.1,93,79,62,30.26,30.01,14,5,17,0.03
2013-12-27,39.2,33.0,25.1,30.9,27.2,19.7,85,79,68,30.29,30.04,14,3,18,0.04
2013-12-28,46.2,39.0,30.4,35.1,31.6,26.6,88,75,63,30.09,29.86,19,5,20,0.04
2013-12-29,44.5,34.8,22.7,32.3,27.6,15.5,87,75,58,29.96,29.64,18,5,21,0.00
2013-12-30,22.7,19.5,14.9,16.1,8.0,2.0,78,61,51,30.24,29.96,13,4,18,0.00
2013-12-31,21.4,17.6,15.4,15.6,9.8,6.4,84,72,59,30.31,30.04,19,6,21,0.00
2014-1-1,16.4,14.0,12.1,12.4,9.1,6.5,85,81,72,30.37,30.21,16,5,16,0.00
2014-1-2,15.2,12.3,3.5,11.5,6.5,-6.0,85,78,62,30.25,30.05,24,9,27,0.00